Temp
4 4 4 4 3 3 3 4 3 3 3 3 3 3 3 4 4 4 4 4 4 4 4 4 4 4 4 4 4 4 4 4 4 4 4 4 4 4 4 4 4 4
4 4 4 4 3 3 3 3 3 3 3 3 3 3 3 4 4 4 4 4 4 4 4 4 4 4 4 4 4 4 4 4 4 4 3 3 3 3 3 3 3 4
3 3 3 3 3 3 3 3 3 3 3 3 3 3 3 3 3 4 4 4 4 4 4 4 4 4 4 4 4 4 4 4 4 3 3 3 3 3 3 3 3 3
2 2 2 2 2 2 2 3 3 2 3 3 3 3 3 3 3 3 3 3 3 3 3 4 4 4 4 4 4 4 4 4 4 3 3 3 3 3 3 3 3 3
2 2 2 1 1 1 1 1 1 1 1 2 2 2 2 2 2 3 3 3 3 3 3 3 3 3 3 3 3 3 4 4 4 4 3 3 4 3 3 3 3 3
1 1 1 1 1 1 0 0 0 0 1 1 1 1 1 2 2 2 2 3 3 3 3 3 3 3 3 2 3 3 3 3 3 3 3 3 3 3 3 3 3 3
1 1 1 1 1 1 1 0 0 -0 0 0 1 1 1 1 2 2 2 2 2 2 2 3 3 3 3 2 2 2 2 2 2 2 2 3 3 3 3 3 3 3
1 1 1 1 1 1 1 1 0 0 0 0 1 1 0 1 1 1 1 1 1 2 2 2 2 2 2 2 2 2 2 2 1 1 1 2 2 2 3 3 3 3
1 0 0 0 0 0 0 0 0 0 0 0 0 0 0 0 0 0 0 0 0 1 1 1 1 1 1 1 1 1 1 1 1 0 -0 0 0 1 1 2 2 2
0 0 0 -0 -0 -0 -0 -0 -0 -0 -1 -1 -1 -1 -0 -0 -0 -1 -1 -1 -1 -1 -1 -1 -0 -0 -0 -0 -1 -1 -1 -1 -1 -1 -1 -1 -1 -0 -0 0 1 1
1 0 0 -0 -0 -1 -1 -1 -1 -1 -1 -1 -1 -1 -1 -1 -1 -1 -2 -2 -2 -2 -2 -2 -2 -2 -2 -2 -2 -3 -3 -3 -3 -2 -2 -2 -2 -2 -1 -1 -1 -0
1 1 0 -0 -0 -0 -1 -1 -1 -1 -1 -1 -2 -2 -2 -2 -2 -2 -3 -3 -3 -4 -4 -4 -4 -4 -4 -4 -4 -4 -4 -4 -4 -4 -4 -3 -3 -3 -2 -2 -2 -1
1 1 0 -0 -0 -1 -1 -1 -1 -1 -1 -2 -2 -2 -2 -2 -2 -3 -3 -4 -4 -4 -5 -5 -5 -5 -5 -5 -6 -6 -5 -5 -5 -5 -5 -4 -4 -4 -3 -3 -3 -2
1 0 -0 -0 -1 -1 -1 -1 -1 -2 -2 -2 -3 -3 -3 -4 -4 -4 -4 -4 -5 -5 -5 -6 -6 -6 -6 -6 -6 -6 -6 -6 -6 -6 -5 -5 -5 -5 -4 -4 -4 -3
-0 -0 -1 -1 -1 -1 -1 -2 -2 -2 -3 -3 -3 -4 -4 -5 -5 -5 -6 -6 -6 -6 -6 -6 -6 -6 -6 -7 -7 -7 -7 -6 -6 -6 -6 -6 -6 -5 -5 -5 -4 -4
-0 -1 -1 -1 -1 -2 -2 -3 -3 -3 -3 -4 -4 -4 -5 -5 -6 -6 -7 -7 -7 -7 -7 -7 -7 -7 -7 -7 -7 -7 -7 -7 -7 -7 -7 -7 -7 -6 -6 -6 -5 -5
-0 -0 -1 -1 -2 -2 -3 -3 -4 -4 -5 -5 -5 -5 -6 -6 -7 -7 -8 -8 -8 -8 -8 -8 -8 -8 -8 -8 -8 -8 -8 -8 -8 -8 -7 -7 -7 -7 -7 -7 -6 -6
-1 -1 -1 -2 -2 -3 -4 -4 -5 -5 -6 -6 -6 -6 -7 -7 -8 -8 -8 -9 -10 -10 -10 -10 -10 -10 -10 -9 -9 -9 -9 -8 -8 -8 -8 -8 -8 -8 -8 -8 -7 -7
-1 -1 -2 -2 -3 -4 -5 -5 -6 -6 -7 -7 -7 -8 -8 -8 -9 -9 -10 -11 -11 -11 -11 -11 -11 -11 -11 -11 -10 -10 -10 -10 -10 -10 -10 -9 -9 -9 -9 -9 -8 -8
-2 -3 -3 -4 -5 -5 -6 -6 -7 -7 -8 -8 -8 -9 -10 -10 -10 -11 -12 -12 -13 -13 -13 -13 -13 -13 -12 -12 -12 -12 -11 -11 -11 -11 -11 -10 -10 -10 -10 -10 -10 -9
-4 -4 -5 -6 -6 -7 -7 -8 -8 -9 -9 -10 -10 -11 -11 -12 -12 -13 -13 -14 -14 -14 -14 -14 -14 -14 -14 -14 -13 -13 -12 -12 -12 -12 -12 -12 -12 -12 -11 -11 -11 -11
-5 -6 -7 -7 -8 -8 -9 -9 -10 -11 -12 -12 -12 -12 -13 -13 -14 -14 -15 -15 -15 -16 -16 -16 -16 -16 -15 -15 -14 -14 -13 -13 -13 -14 -14 -14 -14 -13 -13 -13 -12 -12
-7 -8 -8 -9 -9 -10 -10 -11 -12 -13 -13 -14 -14 -14 -14 -15 -15 -16 -16 -16 -16 -17 -17 -17 -17 -17 -16 -16 -15 -15 -14 -14 -14 -14 -14 -14 -14 -14 -14 -13 -13 -12
-9 -9 -10 -10 -11 -11 -12 -13 -14 -14 -14 -15 -15 -16 -16 -17 -17 -17 -17 -17 -17 -17 -17 -17 -17 -17 -17 -16 -16 -15 -15 -15 -15 -15 -15 -14 -14 -14 -14 -14 -13 -13
-10 -10 -11 -11 -12 -12 -13 -14 -15 -15 -15 -16 -16 -17 -17 -18 -18 -18 -18 -18 -18 -18 -18 -18 -18 -18 -18 -17 -17 -16 -15 -15 -15 -15 -15 -14 -14 -14 -14 -14 -13 -13
-11 -11 -12 -12 -13 -14 -15 -16 -16 -16 -16 -17 -17 -18 -18 -18 -18 -19 -19 -18 -19 -19 -18 -18 -18 -18 -18 -18 -17 -16 -15 -15 -15 -15 -15 -15 -14 -14 -14 -14 -14 -13
Height
839 841 841 841 842 842 842 841 841 841 840 839 838 837 836 835 834 833 832 831 830 829 828 827 827 826 825 824 823 823 822 822 821 820 820 818 818 817 816 816 815 814
840 841 842 842 843 843 843 842 842 842 841 841 839 838 837 836 835 833 832 832 831 830 829 828 827 826 825 825 824 823 822 821 820 819 819 817 817 816 815 814 813 812
841 842 843 843 844 844 844 844 843 843 842 841 839 838 837 836 835 834 832 832 831 830 829 828 828 827 826 825 824 823 822 821 820 819 818 817 816 814 813 812 811 810
843 844 844 844 845 844 844 844 843 842 841 839 838 837 836 835 834 833 832 831 830 829 829 828 828 826 825 824 823 822 821 820 819 818 817 816 815 813 812 810 808 807
844 845 845 845 845 844 844 843 842 841 839 838 838 837 836 834 833 832 830 830 829 828 827 827 826 825 825 824 823 822 820 819 818 817 816 814 813 812 810 808 806 805
845 845 845 845 845 844 843 842 841 840 839 838 837 836 836 834 833 832 830 829 828 827 825 824 823 823 822 821 820 819 818 817 816 815 814 812 811 810 808 807 804 803
845 846 845 845 844 844 843 842 841 840 839 838 837 836 835 833 833 832 830 829 828 827 826 824 822 821 820 819 817 816 815 814 813 812 811 809 808 807 805 804 802 800
845 845 845 844 843 843 842 841 840 839 838 837 836 835 834 833 832 831 830 829 828 826 825 824 823 821 820 818 816 814 812 811 810 809 807 806 805 803 802 802 800 798
845 844 844 843 842 841 841 840 839 838 837 836 835 834 833 832 831 829 828 827 826 824 823 822 820 819 818 816 814 812 810 808 807 806 805 803 802 800 799 798 797 795
844 843 843 842 841 840 839 838 838 837 836 835 834 832 831 830 829 828 826 825 823 821 820 818 817 815 814 812 811 810 808 806 805 803 802 800 799 797 796 795 793 790
843 842 842 841 840 839 838 837 836 835 834 833 832 830 829 828 826 825 824 822 820 819 817 815 814 812 810 809 808 807 806 804 803 801 800 798 796 794 792 791 789 786
841 841 840 839 839 838 837 836 835 834 833 831 830 828 827 825 824 822 821 819 817 816 814 812 810 809 807 806 805 804 803 802 800 799 797 795 793 791 789 788 786 783
840 839 839 838 837 836 835 834 833 832 831 830 829 827 825 823 822 820 818 816 814 813 811 809 807 805 804 803 802 802 801 799 797 795 793 791 789 787 785 784 781 779
838 838 837 836 836 834 834 832 831 830 828 827 826 825 823 822 820 818 815 814 812 810 808 806 804 802 800 800 800 799 798 796 794 792 789 787 784 782 780 779 776 775
837 837 835 835 834 833 832 830 829 827 826 824 823 822 820 819 817 815 813 810 809 807 805 803 801 798 797 797 797 796 794 792 790 788 785 782 779 776 774 773 771 769
835 835 833 833 832 831 830 828 826 825 823 822 820 818 817 815 813 811 809 808 806 803 801 800 797 795 794 795 795 793 791 788 785 783 780 778 775 771 768 766 765 763
833 832 831 830 829 828 827 825 824 823 821 820 817 815 814 811 809 807 805 804 803 800 798 795 793 792 792 792 791 790 788 786 782 778 775 772 770 766 763 760 758 757
831 829 829 828 826 826 824 823 822 820 818 817 814 812 810 808 806 804 802 801 800 798 795 792 789 789 790 789 786 785 785 783 779 774 770 767 764 761 758 754 752 750
829 827 827 826 824 824 822 821 819 817 816 814 811 809 807 805 803 801 799 798 798 795 792 788 786 786 787 785 782 781 781 778 775 770 766 762 758 755 753 750 747 745
827 826 825 824 823 822 820 819 817 815 813 812 809 807 804 801 799 797 795 795 794 792 789 785 783 784 784 781 779 778 776 773 770 765 761 757 753 750 748 746 744 741
825 824 823 822 821 820 818 817 815 813 811 809 807 804 802 799 796 794 792 791 790 789 786 781 780 782 781 777 775 774 771 769 765 761 757 752 748 746 744 742 739 737
823 822 821 820 818 817 815 813 812 810 808 806 803 801 799 796 794 792 790 788 786 786 783 778 776 778 777 773 772 770 767 764 761 757 753 748 743 741 740 737 735 733
820 819 818 817 815 814 812 810 808 806 805 803 800 797 795 793 791 789 788 786 783 782 781 775 771 773 773 770 768 766 763 760 757 753 748 744 740 738 736 733 731 729
818 817 815 814 812 810 808 807 805 803 801 800 797 794 791 790 788 786 784 784 781 779 778 774 768 768 769 766 763 762 759 756 753 749 745 741 737 734 732 730 726 725
815 814 813 811 809 807 805 803 801 799 797 796 794 791 788 786 786 783 780 780 778 775 774 772 766 763 764 762 759 758 756 753 749 745 740 737 734 731 728 727 724 721
812 811 809 808 806 804 802 800 798 796 794 792 790 788 786 783 782 780 777 775 774 772 770 768 764 760 759 758 756 753 752 749 745 741 737 733 731 727 724 722 720 718
Wind_Speed
24 24 23 23 23 22 22 22 22 22 22 22 22 22 22 22 21 21 22 21 21 22 22 22 21 21 20 19 18 17 18 18 18 18 18 19 19 20 21 21 21 22
22 21 21 20 20 20 20 20 19 20 20 20 20 20 20 21 21 21 21 21 21 21 21 21 21 21 21 21 20 19 19 19 19 19 20 20 20 21 21 21 22 22
21 20 19 18 17 17 17 17 18 18 18 19 20 20 21 21 21 21 21 21 21 21 21 22 22 22 22 22 21 21 20 21 21 21 21 21 21 22 22 22 22 22
18 18 17 16 15 15 16 16 18 19 19 20 20 21 21 22 22 23 23 23 23 23 23 23 23 23 23 23 23 23 23 22 22 22 22 22 22 23 23 23 24 24
16 15 15 15 13 13 15 16 18 20 21 21 21 22 22 23 24 24 25 25 25 25 25 25 25 24 24 24 24 24 25 25 24 24 25 24 24 23 23 24 25 26
13 14 14 15 14 14 15 15 16 19 20 21 21 22 22 23 23 24 25 26 26 27 28 28 28 28 27 27 26 26 26 26 26 26 26 27 27 27 25 25 26 27
12 13 15 15 15 16 16 16 16 18 20 20 21 22 23 23 23 23 24 25 25 26 27 28 29 30 30 30 30 30 29 28 28 28 28 28 29 29 29 28 28 28
13 14 16 17 17 18 18 18 18 19 20 21 22 23 24 24 25 25 25 26 26 26 27 27 28 29 30 31 32 32 32 32 31 30 30 31 30 31 30 30 30 30
14 15 17 18 19 20 20 20 20 21 21 22 23 24 24 25 26 27 28 28 29 29 29 30 31 31 31 32 32 33 34 35 34 33 32 32 32 33 32 31 31 31
15 16 18 19 20 21 22 22 22 23 23 23 24 25 26 27 28 29 30 31 31 32 33 33 34 34 34 34 34 33 34 35 36 35 34 34 33 34 34 33 33 34
15 18 20 21 22 22 23 23 24 24 25 25 27 28 29 30 31 32 32 33 33 34 34 35 35 35 36 36 35 34 33 33 34 34 34 35 35 35 35 35 35 36
15 18 21 22 22 22 23 23 24 25 26 27 28 30 32 33 34 35 35 35 35 35 34 35 35 35 35 35 35 33 32 33 33 33 33 34 35 35 36 36 36 37
16 18 22 24 24 23 23 23 24 25 26 27 29 31 33 35 36 37 37 36 36 36 35 35 35 36 36 35 33 32 31 31 33 33 34 34 35 35 36 36 36 37
15 17 21 24 25 24 24 24 25 27 28 29 30 32 34 35 36 37 37 37 36 36 36 37 37 39 38 34 32 31 30 31 32 33 34 35 36 36 37 37 37 37
14 17 21 24 25 25 25 26 27 28 30 31 33 34 35 36 36 35 35 36 37 37 38 38 39 40 39 34 31 32 32 32 32 32 33 35 36 38 39 39 39 39
15 18 22 25 26 25 26 27 28 30 31 33 35 36 37 37 37 36 35 35 36 38 39 39 39 40 39 35 32 31 32 33 34 34 34 35 37 38 40 41 40 40
17 21 25 27 26 26 27 28 29 31 33 35 36 37 37 37 37 37 37 36 35 37 38 39 40 40 36 33 32 31 31 33 35 37 37 37 37 38 40 41 41 41
20 24 26 27 27 27 28 29 31 33 34 36 36 37 37 37 37 37 38 37 35 36 38 39 40 38 33 31 32 31 31 31 34 37 39 40 40 39 40 41 41 42
21 24 25 26 26 27 29 31 33 34 35 35 36 36 36 37 37 37 38 36 34 34 37 39 39 35 31 31 32 32 32 32 34 37 40 41 43 42 42 42 41 41
21 22 23 24 26 27 30 31 32 33 33 33 35 35 36 37 38 38 37 36 33 33 35 38 37 33 30 32 33 33 33 33 34 36 36 37 39 39 40 41 40 39
20 21 22 24 26 28 29 30 30 31 32 32 33 34 35 36 37 37 37 36 34 32 35 38 37 31 30 33 33 33 33 33 33 33 34 35 37 36 37 39 40 41
19 21 23 25 26 27 28 28 29 30 30 30 32 33 34 34 35 35 35 35 35 33 34 39 39 32 30 32 32 31 33 32 32 33 34 35 36 36 35 36 37 38
19 21 23 25 25 26 27 28 28 29 29 29 30 33 33 33 34 35 33 33 35 34 33 38 40 34 29 31 32 32 32 32 31 32 32 33 34 34 33 33 33 33
20 21 22 23 24 24 26 26 27 28 28 28 29 31 33 33 33 34 34 32 33 34 33 35 39 35 30 31 33 32 32 32 31 31 31 32 33 33 32 33 33 32
19 20 20 21 23 23 24 25 26 27 28 28 28 30 32 33 32 33 34 32 32 34 33 32 36 37 33 32 33 31 30 31 31 31 31 31 32 33 32 32 33 33
17 18 18 20 21 22 23 23 25 26 27 28 29 30 32 33 32 32 34 34 33 33 33 31 34 37 34 31 31 30 30 30 31 32 33 33 33 34 35 34 33 33
Wind_Direction
73 70 68 65 61 57 54 52 49 46 44 41 39 37 35 33 30 29 28 28 27 26 25 24 21 18 13 6 358 348 341 335 331 329 326 321 319 315 311 308 303 299
68 66 64 61 57 52 49 46 42 40 37 34 32 30 27 25 23 22 21 20 20 18 17 15 14 13 11 9 6 0 354 346 339 334 329 322 319 316 314 312 309 305
62 58 56 52 48 45 42 41 38 35 31 28 25 22 19 17 15 14 14 13 12 11 9 7 6 4 3 1 360 359 357 353 349 343 334 327 323 318 314 312 309 307
55 51 48 45 41 35 31 29 27 25 23 21 19 16 13 11 9 8 7 6 5 4 2 1 359 358 356 353 351 350 349 348 346 344 338 334 331 325 320 316 311 307
50 45 43 40 37 28 21 19 17 15 14 13 11 9 7 6 4 2 1 360 358 357 356 354 353 352 350 348 345 343 342 340 339 337 335 333 332 330 326 322 317 312
43 39 37 34 32 27 20 16 10 6 7 5 4 2 1 1 360 358 356 354 352 350 349 347 346 344 344 342 339 337 335 333 332 331 329 326 326 326 325 323 320 317
40 32 29 25 23 20 17 14 7 2 1 359 357 357 356 354 353 352 350 347 345 343 341 340 338 337 336 335 332 330 329 327 326 325 323 321 320 318 319 319 317 315
32 24 19 16 14 11 9 8 4 0 358 354 353 352 350 348 346 344 342 340 338 336 334 332 330 329 328 327 326 325 323 322 321 320 318 316 314 312 312 313 312 309
21 15 11 8 6 4 2 1 358 356 353 350 347 346 344 342 341 339 337 334 332 330 329 327 325 324 322 321 320 319 319 318 316 315 313 311 309 307 306 306 305 303
12 8 3 0 358 356 354 353 351 349 347 345 342 340 338 336 335 333 332 330 328 326 325 323 322 322 320 318 317 316 315 313 313 311 309 307 304 302 301 301 300 297
2 1 358 354 351 348 347 345 344 342 341 340 338 335 334 332 331 330 328 326 325 323 322 321 320 319 317 315 314 313 312 310 310 308 307 305 302 299 298 296 295 293
348 351 351 348 344 341 339 338 337 336 335 334 333 331 329 328 327 327 326 323 321 320 318 317 317 315 313 311 311 311 311 310 308 306 304 302 300 297 295 293 291 290
333 339 342 341 337 334 333 332 331 330 329 328 327 325 324 323 323 323 321 320 318 317 316 315 314 312 309 309 309 310 310 309 307 305 303 300 298 295 293 292 289 287
322 329 334 334 331 328 327 326 326 325 325 324 323 322 320 320 320 319 317 316 314 313 313 312 311 310 308 309 310 310 309 307 304 302 301 299 297 295 293 292 289 287
317 324 329 329 327 324 323 323 322 322 321 321 320 319 318 317 316 315 314 313 311 311 310 310 309 307 307 310 311 311 309 306 303 300 298 296 295 294 292 291 289 288
312 319 323 323 322 320 320 320 319 319 318 318 317 316 315 315 314 313 312 310 310 309 308 308 306 305 306 309 310 309 308 306 303 300 297 295 292 291 290 289 288 287
309 314 317 318 317 317 317 317 317 317 316 315 314 314 314 314 312 311 310 309 309 308 307 306 304 304 307 310 309 308 307 306 304 301 298 295 292 289 288 288 287 286
308 311 312 313 313 314 315 316 315 314 314 314 313 313 313 312 310 309 308 307 308 306 305 304 302 304 309 309 307 307 307 305 302 299 297 294 292 289 287 287 286 286
307 308 308 309 310 312 313 313 312 312 313 313 312 312 311 309 308 307 305 306 307 305 304 302 302 305 309 308 307 307 306 305 301 296 293 291 289 288 287 286 286 287
304 304 305 306 308 309 309 309 310 311 311 311 311 310 309 307 306 306 305 305 305 305 304 302 302 306 309 307 306 306 305 303 299 294 292 290 288 287 287 287 286 286
302 302 303 305 306 307 307 307 308 308 309 309 309 307 306 305 305 304 304 305 306 305 304 301 301 306 308 305 305 305 304 302 298 294 292 290 288 288 288 287 286 285
301 302 302 304 306 307 307 307 308 307 307 308 308 306 305 304 303 303 303 304 305 305 303 301 302 305 307 305 305 305 304 301 298 294 291 289 288 288 288 287 286 286
300 302 304 306 306 306 306 307 307 307 308 309 307 306 305 304 303 302 302 302 302 303 302 301 302 305 306 305 305 304 302 300 296 292 290 288 288 289 289 289 288 287
301 303 305 305 305 305 306 307 308 308 309 310 308 305 304 302 301 300 300 300 300 301 301 301 301 304 306 305 303 302 299 297 294 290 289 288 288 289 289 289 288 288
302 304 304 304 305 306 307 308 309 309 310 310 308 304 302 301 300 299 299 299 299 299 300 300 300 304 306 304 302 300 297 295 292 288 287 288 289 290 290 290 290 290
305 305 304 305 306 308 310 310 310 311 311 310 308 304 301 299 299 298 298 298 299 300 301 301 302 305 306 303 299 297 296 294 291 289 288 288 288 287 287 288 288 289